Location: Albuquerque Trailhead
(34.7934°N, 106.3736°W)
Time: 10:57:31
(UTC+00:00)

Exosat Rocket - Pass Details

Date: 28 October 2021
Orbit: 759 x 2516 km, 72.3° (Epoch: 08 December)

Event Time Altitude Azimuth Distance (km) Brightness Sun altitude
Exits shadow 12:45:35 - 247° (WSW) 4,539 7.0 -8.3°
Reaches altitude 10° 12:48:27 10° 258° (WSW) 3,927 6.6 -7.7°
Maximum altitude 12:56:48 27° 313° (NW) 3,299 6.3 -6.0°
Drops below altitude 10° 13:07:22 10° 6° (N) 4,991 7.6 -3.9°
Sets 13:12:26 0° 18° (NNE) 6,141 8.2 -2.9°
